When you browse on this site, cookies collect data to enhance your experience and personalize the content and advertising you see.
Visit our Privacy Policy to learn more. By continuing to use the site, you agree to this use of cookies and data.
  • In Schweiz
  • Länderverzeichnis
  • Für 7 Tage
  • Wassertemperatur
  • Satellitenkarten
  • Wetterkarte
  • Widgets
  • user-avatar
    Anmelden

    Stündliche Wetter Hrasdan

    Heute, 20 Juni, Donnerstag

    Zeit Temperatur Niederschläge Wind Luftdruck Luftfeuchtigkeit
    00:00 +13°C° 0.2 mm 1 m/S 611 mmHg 83%
    01:00 +13°C° 0.1 mm 1 m/S 611 mmHg 84%
    02:00 +13°C° 0.1 mm 1 m/S 611 mmHg 84%
    03:00 +12°C° 0 mm 1 m/S 611 mmHg 83%
    04:00 +13°C° 0 mm 1 m/S 611 mmHg 83%
    05:00 +14°C° 0 mm 1 m/S 612 mmHg 83%
    06:00 +15°C° 0 mm 1 m/S 612 mmHg 82%
    07:00 +16°C° 0.5 mm 2 m/S 612 mmHg 78%
    08:00 +18°C° 0.5 mm 2 m/S 612 mmHg 74%
    09:00 +19°C° 0.5 mm 2 m/S 613 mmHg 69%
    10:00 +20°C° 1.4 mm 2 m/S 613 mmHg 67%
    11:00 +20°C° 1.4 mm 2 m/S 613 mmHg 65%
    12:00 +22°C° 1.4 mm 1 m/S 613 mmHg 63%
    13:00 +21°C° 1.3 mm 2 m/S 612 mmHg 63%
    14:00 +21°C° 1.3 mm 2 m/S 612 mmHg 63%
    15:00 +21°C° 1.3 mm 2 m/S 612 mmHg 63%
    16:00 +21°C° 0.7 mm 2 m/S 612 mmHg 67%
    17:00 +20°C° 0.7 mm 2 m/S 611 mmHg 71%
    18:00 +19°C° 0.7 mm 2 m/S 611 mmHg 74%
    19:00 +18°C° 1.1 mm 2 m/S 611 mmHg 79%
    20:00 +16°C° 1.1 mm 2 m/S 611 mmHg 83%
    21:00 +13°C° 1.1 mm 3 m/S 610 mmHg 88%
    22:00 +14°C° 0.2 mm 2 m/S 610 mmHg 86%
    23:00 +14°C° 0.2 mm 2 m/S 610 mmHg 84%

    Morgen, 21 Juni, Freitag

    Zeit Temperatur Niederschläge Wind Luftdruck Luftfeuchtigkeit
    00:00 +14°C° 0.2 mm 1 m/S 611 mmHg 82%
    01:00 +13°C° 0.2 mm 1 m/S 610 mmHg 82%
    02:00 +13°C° 0.2 mm 1 m/S 610 mmHg 82%
    03:00 +13°C° 0.2 mm 2 m/S 610 mmHg 83%
    04:00 +13°C° 0.2 mm 2 m/S 610 mmHg 83%
    05:00 +14°C° 0.2 mm 1 m/S 611 mmHg 82%
    06:00 +15°C° 0.2 mm 1 m/S 611 mmHg 82%
    07:00 +16°C° 0.4 mm 2 m/S 611 mmHg 78%
    08:00 +17°C° 0.4 mm 2 m/S 612 mmHg 75%
    09:00 +19°C° 0.4 mm 2 m/S 612 mmHg 71%
    10:00 +19°C° 1.1 mm 2 m/S 612 mmHg 69%
    11:00 +20°C° 1.1 mm 2 m/S 612 mmHg 68%
    12:00 +20°C° 1.1 mm 2 m/S 612 mmHg 66%
    13:00 +21°C° 1 mm 2 m/S 612 mmHg 67%
    14:00 +21°C° 1 mm 2 m/S 612 mmHg 67%
    15:00 +21°C° 1 mm 2 m/S 612 mmHg 68%
    16:00 +20°C° 0.7 mm 2 m/S 612 mmHg 72%
    17:00 +19°C° 0.7 mm 2 m/S 612 mmHg 76%
    18:00 +19°C° 0.7 mm 2 m/S 612 mmHg 80%
    19:00 +17°C° 0.6 mm 2 m/S 612 mmHg 81%
    20:00 +16°C° 0.6 mm 2 m/S 612 mmHg 82%
    21:00 +14°C° 0.6 mm 2 m/S 612 mmHg 84%
    22:00 +14°C° 0.1 mm 2 m/S 612 mmHg 83%
    23:00 +13°C° 0.1 mm 2 m/S 612 mmHg 83%

    übermorgen, 22 Juni, Samstag

    Zeit Temperatur Niederschläge Wind Luftdruck Luftfeuchtigkeit
    00:00 +13°C° 0.1 mm 1 m/S 612 mmHg 82%
    01:00 +13°C° 0 mm 1 m/S 612 mmHg 83%
    02:00 +13°C° 0 mm 1 m/S 611 mmHg 84%
    03:00 +12°C° 0 mm 1 m/S 611 mmHg 84%
    04:00 +13°C° 0 mm 1 m/S 612 mmHg 85%
    05:00 +14°C° 0 mm 1 m/S 612 mmHg 85%
    06:00 +14°C° 0 mm 1 m/S 613 mmHg 85%
    07:00 +16°C° 0.1 mm 1 m/S 613 mmHg 81%
    08:00 +18°C° 0.1 mm 2 m/S 614 mmHg 76%
    09:00 +19°C° 0.1 mm 2 m/S 615 mmHg 72%
    10:00 +20°C° 0.8 mm 2 m/S 615 mmHg 70%
    11:00 +20°C° 0.8 mm 2 m/S 615 mmHg 69%
    12:00 +21°C° 0.8 mm 2 m/S 615 mmHg 67%
    13:00 +21°C° 1 mm 2 m/S 615 mmHg 67%
    14:00 +21°C° 1 mm 2 m/S 615 mmHg 67%
    15:00 +23°C° 1 mm 2 m/S 615 mmHg 66%
    16:00 +21°C° 0.8 mm 2 m/S 614 mmHg 70%
    17:00 +20°C° 0.8 mm 2 m/S 614 mmHg 75%
    18:00 +20°C° 0.8 mm 2 m/S 614 mmHg 79%
    19:00 +18°C° 0.5 mm 2 m/S 614 mmHg 80%
    20:00 +17°C° 0.5 mm 2 m/S 614 mmHg 82%
    21:00 +15°C° 0.5 mm 2 m/S 613 mmHg 84%
    22:00 +15°C° 0.2 mm 2 m/S 613 mmHg 84%
    23:00 +14°C° 0.2 mm 2 m/S 613 mmHg 85%

    23 Juni, Sonntag

    Zeit Temperatur Niederschläge Wind Luftdruck Luftfeuchtigkeit
    00:00 +14°C° 0.2 mm 2 m/S 613 mmHg 86%
    01:00 +14°C° 0.1 mm 2 m/S 613 mmHg 85%
    02:00 +14°C° 0.1 mm 2 m/S 613 mmHg 84%
    03:00 +14°C° 0.1 mm 1 m/S 613 mmHg 83%
    04:00 +15°C° 0 mm 1 m/S 614 mmHg 83%
    05:00 +15°C° 0 mm 1 m/S 614 mmHg 83%
    06:00 +16°C° 0 mm 1 m/S 615 mmHg 83%
    07:00 +18°C° 0.1 mm 2 m/S 615 mmHg 78%
    08:00 +19°C° 0.1 mm 2 m/S 616 mmHg 74%
    09:00 +21°C° 0.1 mm 2 m/S 616 mmHg 69%
    10:00 +23°C° 0.4 mm 2 m/S 616 mmHg 66%
    11:00 +24°C° 0.4 mm 2 m/S 616 mmHg 63%
    12:00 +25°C° 0.4 mm 2 m/S 617 mmHg 60%
    13:00 +25°C° 0.3 mm 2 m/S 617 mmHg 59%
    14:00 +25°C° 0.3 mm 2 m/S 616 mmHg 58%
    15:00 +26°C° 0.3 mm 2 m/S 616 mmHg 57%
    16:00 +25°C° 0.3 mm 2 m/S 616 mmHg 63%
    17:00 +24°C° 0.3 mm 2 m/S 616 mmHg 69%
    18:00 +23°C° 0.3 mm 2 m/S 615 mmHg 75%
    19:00 +20°C° 0.1 mm 2 m/S 615 mmHg 77%
    20:00 +18°C° 0.1 mm 2 m/S 615 mmHg 78%
    21:00 +17°C° 0.1 mm 2 m/S 614 mmHg 80%
    22:00 +16°C° 0 mm 2 m/S 614 mmHg 80%
    23:00 +16°C° 0 mm 2 m/S 614 mmHg 81%

    24 Juni, Montag

    Zeit Temperatur Niederschläge Wind Luftdruck Luftfeuchtigkeit
    00:00 +16°C° 0 mm 2 m/S 614 mmHg 82%
    01:00 +15°C° 0 mm 2 m/S 614 mmHg 81%
    02:00 +15°C° 0 mm 2 m/S 614 mmHg 80%
    03:00 +15°C° 0 mm 2 m/S 614 mmHg 79%
    04:00 +15°C° 0 mm 2 m/S 614 mmHg 79%
    05:00 +16°C° 0 mm 2 m/S 614 mmHg 79%
    06:00 +17°C° 0 mm 2 m/S 615 mmHg 78%
    07:00 +19°C° 0 mm 2 m/S 615 mmHg 74%
    08:00 +20°C° 0 mm 2 m/S 616 mmHg 69%
    09:00 +23°C° 0 mm 2 m/S 616 mmHg 64%
    10:00 +24°C° 0.3 mm 2 m/S 616 mmHg 63%
    11:00 +25°C° 0.3 mm 2 m/S 616 mmHg 61%
    12:00 +25°C° 0.3 mm 2 m/S 616 mmHg 60%
    13:00 +25°C° 0.5 mm 2 m/S 616 mmHg 61%
    14:00 +26°C° 0.5 mm 2 m/S 616 mmHg 62%
    15:00 +26°C° 0.5 mm 3 m/S 616 mmHg 63%
    16:00 +25°C° 0.5 mm 3 m/S 615 mmHg 67%
    17:00 +24°C° 0.5 mm 3 m/S 615 mmHg 72%
    18:00 +23°C° 0.5 mm 2 m/S 615 mmHg 76%
    19:00 +20°C° 0.3 mm 2 m/S 615 mmHg 78%
    20:00 +19°C° 0.3 mm 2 m/S 615 mmHg 79%
    21:00 +17°C° 0.3 mm 2 m/S 614 mmHg 81%
    22:00 +17°C° 0.1 mm 2 m/S 614 mmHg 81%
    23:00 +16°C° 0.1 mm 2 m/S 614 mmHg 81%

    25 Juni, Dienstag

    Zeit Temperatur Niederschläge Wind Luftdruck Luftfeuchtigkeit
    00:00 +16°C° 0.1 mm 2 m/S 614 mmHg 81%
    01:00 +16°C° 0 mm 2 m/S 614 mmHg 80%
    02:00 +16°C° 0 mm 2 m/S 614 mmHg 79%
    03:00 +15°C° 0 mm 2 m/S 614 mmHg 78%
    04:00 +16°C° 0 mm 2 m/S 614 mmHg 78%
    05:00 +17°C° 0 mm 2 m/S 615 mmHg 77%
    06:00 +18°C° 0 mm 2 m/S 615 mmHg 77%
    07:00 +19°C° 0 mm 2 m/S 616 mmHg 72%
    08:00 +21°C° 0 mm 2 m/S 616 mmHg 67%
    09:00 +24°C° 0 mm 2 m/S 617 mmHg 63%
    10:00 +25°C° 0.1 mm 2 m/S 617 mmHg 61%
    11:00 +25°C° 0.1 mm 2 m/S 617 mmHg 59%
    12:00 +26°C° 0.1 mm 2 m/S 617 mmHg 57%
    13:00 +27°C° 0.2 mm 2 m/S 617 mmHg 56%
    14:00 +27°C° 0.2 mm 2 m/S 617 mmHg 56%
    15:00 +27°C° 0.2 mm 2 m/S 617 mmHg 56%
    16:00 +26°C° 0.2 mm 2 m/S 616 mmHg 62%
    17:00 +25°C° 0.2 mm 2 m/S 616 mmHg 68%
    18:00 +24°C° 0.2 mm 2 m/S 615 mmHg 74%
    19:00 +21°C° 0 mm 2 m/S 615 mmHg 76%
    20:00 +20°C° 0 mm 2 m/S 615 mmHg 78%
    21:00 +18°C° 0 mm 2 m/S 614 mmHg 81%
    22:00 +17°C° 0 mm 2 m/S 614 mmHg 79%
    23:00 +17°C° 0 mm 2 m/S 614 mmHg 78%
    Mehr zeigen